Location: Newark
(34.9756°N, 138.3828°E)
Time: 00:27:58
(UTC+00:00)

N. Korean satellite - Pass Details

Date: 19 December 2019
Orbit: 454 x 507 km, 97.2° (Epoch: 21 January)

Event Time Altitude Azimuth Distance (km) Brightness Sun altitude
Rises 20:03:28 0° 23° (NNE) 2,492 10.3 -21.0°
Reaches altitude 10° 20:05:42 10° 34° (NE) 1,606 9.4 -20.6°
Maximum altitude 20:08:46 30° 97° (E) 839 8.4 -20.0°
Drops below altitude 10° 20:11:48 10° 161° (SSE) 1,584 9.6 -19.4°
Sets 20:13:59 0° 172° (S) 2,451 10.5 -18.9°
